STARLINK-35844

Last updated on Fri Dec 19 2025 00:02:08 GMT+0000 (Coordinated Universal Time)

1 66880U 25283C 25352.58336806 -.01265018 00000+0 -78487-2 0 9994 2 66880 53.1558 44.4465 0001242 55.0067 64.7434 15.79176007 3369
UTC large
Height (km)
Speed (km/s)
/
Latitude / Longitude
Inclination (degrees)
Orbital Period (minutes)
Azimuth
Elevation
Range (km)
Doppler Factor

Next 0 passes for location: London (51.5072 / 0.1276)

Sorry there are no passes over London.